LNNPO ENKJ-ENKJ

Flight info

Callsign LNNPO
Flight time N/A
Altitude 2000
Route ENKJ/ENKJ
Aircraft C172/L-SFG/C

Departure

Time 2026-05-05 15:17
Airport Lillestrøm Airfield, Kjeller (ENKJ)

Arrival

Time N/A
Airport Lillestrøm Airfield, Kjeller (ENKJ)
Time Latitude Longitude Altitude Speed Heading
2026-05-05 15:14 59.96743 11.04859 362 ft 0 kts 325°
2026-05-05 15:15 59.96750 11.04835 362 ft 6 kts 283°
2026-05-05 15:16 59.96724 11.04702 362 ft 9 kts 239°
2026-05-05 15:16 59.96720 11.04629 361 ft 2 kts 305°
2026-05-05 15:16 59.96755 11.04528 360 ft 29 kts 302°
2026-05-05 15:16 59.96954 11.03909 389 ft 67 kts 299°
2026-05-05 15:17 59.97200 11.03132 599 ft 65 kts 297°
2026-05-05 15:17 59.97438 11.02396 809 ft 62 kts 301°
2026-05-05 15:17 59.97704 11.01720 999 ft 62 kts 304°
2026-05-05 15:17 59.97971 11.01054 1199 ft 61 kts 306°
2026-05-05 15:18 59.98220 11.00378 1381 ft 61 kts 300°
2026-05-05 15:18 59.98380 10.99607 1551 ft 64 kts 264°
2026-05-05 15:18 59.98027 10.98981 1669 ft 78 kts 205°
2026-05-05 15:18 59.97472 10.98635 1704 ft 92 kts 203°
2026-05-05 15:19 59.96857 10.98208 1813 ft 93 kts 206°
2026-05-05 15:19 59.96225 10.97779 1868 ft 102 kts 202°
2026-05-05 15:19 59.95512 10.97405 1862 ft 108 kts 200°
2026-05-05 15:19 59.94778 10.97054 1847 ft 110 kts 199°
2026-05-05 15:20 59.94029 10.96689 1833 ft 111 kts 200°
2026-05-05 15:20 59.93276 10.96308 1828 ft 110 kts 198°
2026-05-05 15:20 59.92511 10.96037 1833 ft 110 kts 196°
2026-05-05 15:20 59.91758 10.95782 1836 ft 110 kts 196°
2026-05-05 15:21 59.91007 10.95519 1834 ft 110 kts 196°
2026-05-05 15:21 59.90247 10.95250 1824 ft 110 kts 198°
2026-05-05 15:21 59.89492 10.94978 1806 ft 110 kts 197°
2026-05-05 15:21 59.88742 10.94708 1812 ft 109 kts 197°
2026-05-05 15:22 59.87996 10.94438 1835 ft 109 kts 197°
2026-05-05 15:22 59.87252 10.94169 1845 ft 109 kts 198°
2026-05-05 15:22 59.86508 10.93900 1855 ft 109 kts 198°
2026-05-05 15:22 59.85759 10.93624 1856 ft 109 kts 197°
2026-05-05 15:23 59.85020 10.93359 1873 ft 108 kts 197°
2026-05-05 15:23 59.84271 10.93086 1884 ft 109 kts 197°
2026-05-05 15:23 59.83508 10.92807 1835 ft 112 kts 195°
2026-05-05 15:23 59.82744 10.92531 1784 ft 114 kts 197°
2026-05-05 15:24 59.81960 10.92240 1733 ft 115 kts 195°
2026-05-05 15:24 59.81172 10.91954 1688 ft 115 kts 197°
2026-05-05 15:24 59.80386 10.91670 1610 ft 114 kts 197°
2026-05-05 15:24 59.79603 10.91386 1546 ft 114 kts 196°
2026-05-05 15:25 59.78820 10.91104 1476 ft 115 kts 197°
2026-05-05 15:25 59.78034 10.90821 1396 ft 115 kts 196°
2026-05-05 15:25 59.77247 10.90537 1337 ft 112 kts 196°
2026-05-05 15:25 59.76495 10.90267 1341 ft 108 kts 195°
2026-05-05 15:26 59.75769 10.89982 1315 ft 105 kts 198°
2026-05-05 15:26 59.75063 10.89614 1261 ft 105 kts 199°
2026-05-05 15:26 59.74379 10.89153 1204 ft 105 kts 200°
2026-05-05 15:26 59.73709 10.89004 1049 ft 90 kts 189°
2026-05-05 15:27 59.73144 10.88877 940 ft 72 kts 194°
2026-05-05 15:27 59.72685 10.88767 876 ft 63 kts 195°
2026-05-05 15:27 59.72249 10.88632 805 ft 65 kts 197°
2026-05-05 15:27 59.71818 10.88505 690 ft 62 kts 194°
2026-05-05 15:28 59.71397 10.88373 554 ft 61 kts 198°
2026-05-05 15:28 59.70976 10.88253 413 ft 60 kts 199°
2026-05-05 15:28 59.70664 10.88158 385 ft 22 kts 190°
2026-05-05 15:28 59.70598 10.88130 382 ft 0 kts 121°
2026-05-05 15:29 59.70649 10.88152 384 ft 15 kts
2026-05-05 15:29 59.70767 10.88193 386 ft 19 kts
2026-05-05 15:29 59.70863 10.88218 388 ft 9 kts
2026-05-05 15:29 59.70902 10.88256 388 ft 3 kts 121°
2026-05-05 15:30 59.70860 10.88326 389 ft 6 kts 141°
2026-05-05 15:30 59.70861 10.88349 389 ft 0 kts
2026-05-05 15:34 59.70864 10.88347 390 ft 1 kts 334°
2026-05-05 15:34 59.70870 10.88313 389 ft 2 kts 276°
2026-05-05 15:35 59.70858 10.88222 388 ft 6 kts 223°
2026-05-05 15:35 59.70795 10.88199 387 ft 15 kts 187°
2026-05-05 15:35 59.70690 10.88168 385 ft 16 kts 193°
2026-05-05 15:35 59.70564 10.88131 381 ft 18 kts 192°
2026-05-05 15:36 59.70502 10.88109 379 ft 4 kts 92°
2026-05-05 15:36 59.70511 10.88120 380 ft 1 kts 352°
2026-05-05 15:36 59.70513 10.88120 380 ft 0 kts
2026-05-05 15:37 59.70520 10.88122 380 ft 11 kts
2026-05-05 15:37 59.70782 10.88193 389 ft 60 kts
2026-05-05 15:37 59.71206 10.88333 586 ft 61 kts
2026-05-05 15:37 59.71632 10.88440 765 ft 63 kts 348°
2026-05-05 15:38 59.71959 10.88002 954 ft 60 kts 293°
2026-05-05 15:38 59.71952 10.87159 1104 ft 69 kts 240°
2026-05-05 15:38 59.71523 10.86692 1270 ft 77 kts 201°
2026-05-05 15:38 59.70976 10.86528 1369 ft 89 kts 193°
2026-05-05 15:39 59.70345 10.86358 1363 ft 93 kts 193°
2026-05-05 15:39 59.69692 10.86188 1392 ft 95 kts 193°
2026-05-05 15:39 59.69034 10.86025 1413 ft 97 kts 193°
2026-05-05 15:39 59.68359 10.85856 1436 ft 97 kts 193°
2026-05-05 15:40 59.67680 10.85689 1455 ft 98 kts 193°
2026-05-05 15:40 59.67003 10.85524 1465 ft 98 kts 193°
2026-05-05 15:40 59.66333 10.85363 1478 ft 98 kts 192°
2026-05-05 15:40 59.65647 10.85198 1490 ft 99 kts 192°
2026-05-05 15:41 59.64966 10.85035 1512 ft 99 kts 193°
2026-05-05 15:41 59.64277 10.84869 1536 ft 100 kts 193°
2026-05-05 15:41 59.63582 10.84701 1570 ft 99 kts 193°
2026-05-05 15:41 59.62909 10.84539 1598 ft 98 kts 192°
2026-05-05 15:42 59.62230 10.84376 1636 ft 98 kts 192°
2026-05-05 15:42 59.61560 10.84216 1677 ft 96 kts 192°
2026-05-05 15:42 59.60900 10.84059 1707 ft 95 kts 192°
2026-05-05 15:42 59.60244 10.83902 1730 ft 94 kts 192°
2026-05-05 15:43 59.59596 10.83747 1757 ft 94 kts 193°
2026-05-05 15:43 59.58940 10.83590 1766 ft 94 kts 193°
2026-05-05 15:43 59.58290 10.83437 1788 ft 95 kts 193°
2026-05-05 15:43 59.57632 10.83278 1814 ft 95 kts 193°
2026-05-05 15:44 59.56979 10.83122 1841 ft 95 kts 193°
2026-05-05 15:44 59.56328 10.82967 1868 ft 95 kts 194°
2026-05-05 15:44 59.55669 10.82809 1892 ft 95 kts 195°
2026-05-05 15:44 59.55006 10.82650 1911 ft 96 kts 194°
2026-05-05 15:45 59.54345 10.82490 1947 ft 96 kts 194°
2026-05-05 15:45 59.53682 10.82328 1950 ft 97 kts 192°
2026-05-05 15:45 59.53006 10.82167 1947 ft 98 kts 193°
2026-05-05 15:45 59.52327 10.82005 1953 ft 98 kts 193°
2026-05-05 15:46 59.51648 10.81842 1961 ft 99 kts 192°
2026-05-05 15:46 59.50962 10.81677 1958 ft 99 kts 192°
2026-05-05 15:46 59.50282 10.81517 1959 ft 100 kts 193°
2026-05-05 15:46 59.49588 10.81353 1949 ft 99 kts 193°
2026-05-05 15:47 59.48904 10.81190 1948 ft 99 kts 194°
2026-05-05 15:47 59.48452 10.81084 1956 ft 98 kts 194°
2026-05-05 15:47 59.47544 10.80866 1955 ft 99 kts 194°
2026-05-05 15:47 59.46882 10.80561 1939 ft 96 kts 210°
2026-05-05 15:48 59.46287 10.79952 1909 ft 96 kts 216°
2026-05-05 15:48 59.45776 10.79129 1886 ft 95 kts 229°
2026-05-05 15:48 59.45337 10.78164 1857 ft 94 kts 231°
2026-05-05 15:48 59.44919 10.77172 1844 ft 93 kts 232°
2026-05-05 15:49 59.44508 10.76182 1838 ft 93 kts 232°
2026-05-05 15:49 59.44099 10.75201 1833 ft 93 kts 233°
2026-05-05 15:49 59.43660 10.74267 1834 ft 93 kts 227°
2026-05-05 15:49 59.43199 10.73371 1824 ft 94 kts 227°
2026-05-05 15:50 59.42732 10.72466 1818 ft 94 kts 227°
2026-05-05 15:50 59.42271 10.71566 1815 ft 93 kts 227°
2026-05-05 15:50 59.41813 10.70675 1814 ft 93 kts 227°
2026-05-05 15:50 59.41357 10.69789 1814 ft 92 kts 226°
2026-05-05 15:51 59.40900 10.68893 1804 ft 92 kts 226°
2026-05-05 15:51 59.40443 10.68007 1802 ft 92 kts 226°
2026-05-05 15:51 59.39991 10.67124 1804 ft 91 kts 228°
2026-05-05 15:51 59.39539 10.66241 1799 ft 91 kts 226°
2026-05-05 15:52 59.39097 10.65382 1855 ft 89 kts 226°
2026-05-05 15:52 59.38656 10.64528 1906 ft 88 kts 227°
2026-05-05 15:52 59.38222 10.63681 1955 ft 88 kts 227°
2026-05-05 15:52 59.37779 10.62824 2009 ft 92 kts 227°
2026-05-05 15:53 59.37318 10.61931 2063 ft 94 kts 226°
2026-05-05 15:53 59.36848 10.61017 2114 ft 95 kts 227°
2026-05-05 15:53 59.36382 10.60105 2165 ft 96 kts 227°
2026-05-05 15:53 59.35903 10.59178 2214 ft 97 kts 227°
2026-05-05 15:54 59.35422 10.58239 2265 ft 97 kts 227°
2026-05-05 15:54 59.34945 10.57316 2312 ft 97 kts 227°
2026-05-05 15:54 59.34467 10.56384 2360 ft 97 kts 228°
2026-05-05 15:54 59.33987 10.55448 2409 ft 97 kts 227°
2026-05-05 15:55 59.33512 10.54529 2505 ft 93 kts 228°
2026-05-05 15:55 59.33061 10.53659 2625 ft 89 kts 226°
2026-05-05 15:55 59.32625 10.52817 2745 ft 87 kts 227°
2026-05-05 15:55 59.32195 10.51993 2866 ft 86 kts 228°
2026-05-05 15:56 59.31770 10.51160 2971 ft 87 kts 225°
2026-05-05 15:56 59.31263 10.50448 3078 ft 89 kts 218°
2026-05-05 15:56 59.30737 10.49801 3168 ft 91 kts 217°
2026-05-05 15:56 59.30202 10.49130 3271 ft 91 kts 220°
2026-05-05 15:57 59.29699 10.48391 3373 ft 91 kts 223°
2026-05-05 15:57 59.29187 10.47598 3427 ft 95 kts 224°
2026-05-05 15:57 59.28667 10.46769 3461 ft 99 kts 223°
2026-05-05 15:57 59.28126 10.45932 3507 ft 98 kts 224°
2026-05-05 15:58 59.27586 10.45061 3421 ft 101 kts 225°
2026-05-05 15:58 59.27076 10.44144 3380 ft 99 kts 230°
2026-05-05 15:58 59.26614 10.43117 3282 ft 101 kts 234°
2026-05-05 15:58 59.26143 10.42103 3204 ft 102 kts 227°
2026-05-05 15:59 59.25620 10.41159 3090 ft 103 kts 229°
2026-05-05 15:59 59.25130 10.40151 2981 ft 103 kts 231°
2026-05-05 15:59 59.24652 10.39094 2863 ft 103 kts 233°
2026-05-05 15:59 59.24205 10.37999 2728 ft 105 kts 234°
2026-05-05 16:00 59.23759 10.36887 2594 ft 104 kts 239°
2026-05-05 16:00 59.23398 10.35643 2413 ft 104 kts 245°
2026-05-05 16:00 59.23101 10.34355 2231 ft 104 kts 248°
2026-05-05 16:00 59.22865 10.33009 1999 ft 107 kts 252°
2026-05-05 16:01 59.22678 10.31667 1798 ft 100 kts 258°
2026-05-05 16:01 59.22559 10.30339 1557 ft 97 kts 260°
2026-05-05 16:01 59.22396 10.29093 1355 ft 92 kts 246°
2026-05-05 16:01 59.22154 10.27980 1169 ft 89 kts 239°
2026-05-05 16:02 59.21816 10.26967 959 ft 90 kts 230°
2026-05-05 16:02 59.21378 10.26145 741 ft 85 kts 217°
2026-05-05 16:02 59.20826 10.25818 540 ft 83 kts 188°
2026-05-05 16:02 59.20307 10.25832 435 ft 65 kts 188°
2026-05-05 16:03 59.19909 10.25833 356 ft 53 kts 174°
2026-05-05 16:03 59.19540 10.25843 302 ft 52 kts 173°
2026-05-05 16:03 59.19193 10.25847 294 ft 46 kts 183°
2026-05-05 16:03 59.18756 10.25867 330 ft 75 kts 176°
2026-05-05 16:04 59.18222 10.25925 523 ft 77 kts 174°
2026-05-05 16:04 59.17665 10.25901 690 ft 80 kts 191°
2026-05-05 16:04 59.17092 10.25870 844 ft 86 kts 178°
2026-05-05 16:04 59.16548 10.26321 1041 ft 92 kts 134°
2026-05-05 16:05 59.16428 10.27609 1135 ft 102 kts 92°
2026-05-05 16:05 59.16538 10.28996 1184 ft 107 kts 78°
2026-05-05 16:05 59.16890 10.30267 1243 ft 110 kts 43°
2026-05-05 16:05 59.17501 10.31209 1282 ft 113 kts 35°
2026-05-05 16:06 59.18145 10.32095 1329 ft 114 kts 33°
2026-05-05 16:06 59.18789 10.33021 1370 ft 117 kts 34°
2026-05-05 16:06 59.19460 10.33928 1415 ft 117 kts 33°
2026-05-05 16:06 59.20120 10.34873 1411 ft 121 kts 36°
2026-05-05 16:07 59.20806 10.35877 1425 ft 121 kts 34°
2026-05-05 16:07 59.21454 10.36907 1435 ft 121 kts 36°
2026-05-05 16:07 59.22105 10.37922 1451 ft 121 kts 33°
2026-05-05 16:07 59.22768 10.38940 1455 ft 121 kts 36°
2026-05-05 16:08 59.23444 10.39925 1452 ft 120 kts 32°
2026-05-05 16:08 59.24150 10.40822 1437 ft 121 kts 28°
2026-05-05 16:08 59.24855 10.41645 1439 ft 119 kts 27°
2026-05-05 16:08 59.25583 10.42465 1447 ft 117 kts 26°
2026-05-05 16:09 59.26300 10.43275 1414 ft 121 kts 28°
2026-05-05 16:09 59.27003 10.44077 1460 ft 115 kts 23°
2026-05-05 16:09 59.27715 10.44840 1468 ft 116 kts 23°
2026-05-05 16:09 59.28436 10.45582 1478 ft 117 kts 22°
2026-05-05 16:10 59.29153 10.46317 1484 ft 117 kts 21°
2026-05-05 16:10 59.29871 10.47024 1503 ft 117 kts 24°
2026-05-05 16:10 59.30592 10.47798 1504 ft 118 kts 25°
2026-05-05 16:10 59.31298 10.48621 1527 ft 117 kts 26°
2026-05-05 16:11 59.32003 10.49463 1516 ft 118 kts 25°
2026-05-05 16:11 59.34089 10.52053 1542 ft 119 kts 31°
2026-05-05 16:12 59.34759 10.52995 1558 ft 117 kts 32°
2026-05-05 16:12 59.36054 10.54930 1577 ft 117 kts 32°
2026-05-05 16:13 59.38018 10.57864 1574 ft 118 kts 32°
2026-05-05 16:13 59.38658 10.58844 1590 ft 117 kts 33°
2026-05-05 16:13 59.39320 10.59789 1581 ft 117 kts 30°
2026-05-05 16:14 59.40665 10.61650 1576 ft 119 kts 33°
2026-05-05 16:14 59.41929 10.63800 1562 ft 120 kts 40°
2026-05-05 16:15 59.43081 10.66130 1576 ft 119 kts 39°
2026-05-05 16:15 59.44393 10.68137 1583 ft 118 kts 31°
2026-05-05 16:16 59.45774 10.69855 1577 ft 118 kts 25°
2026-05-05 16:16 59.47211 10.71348 1602 ft 117 kts 20°
2026-05-05 16:17 59.48687 10.72435 1662 ft 112 kts 13°
2026-05-05 16:17 59.49438 10.72901 1649 ft 114 kts 14°
2026-05-05 16:18 59.50961 10.73907 1640 ft 116 kts 15°
2026-05-05 16:18 59.51707 10.74502 1655 ft 115 kts 19°
2026-05-05 16:18 59.53159 10.75927 1665 ft 114 kts 19°
2026-05-05 16:19 59.53875 10.76576 1671 ft 115 kts 18°
2026-05-05 16:19 59.54616 10.77202 1671 ft 115 kts 17°
2026-05-05 16:19 59.56067 10.78498 1694 ft 115 kts 19°
2026-05-05 16:20 59.57525 10.79810 1694 ft 115 kts 17°
2026-05-05 16:20 59.59005 10.80922 1719 ft 113 kts 17°
2026-05-05 16:21 59.60481 10.82017 1719 ft 113 kts 13°
2026-05-05 16:22 59.62688 10.83577 1721 ft 113 kts 18°
2026-05-05 16:22 59.64184 10.84647 1693 ft 114 kts 13°
2026-05-05 16:23 59.65685 10.85459 1719 ft 111 kts
2026-05-05 16:23 59.66460 10.85775 1682 ft 114 kts
2026-05-05 16:23 59.68009 10.86382 1674 ft 114 kts
2026-05-05 16:24 59.68782 10.86582 1689 ft 111 kts
2026-05-05 16:24 59.69552 10.86716 1567 ft 111 kts 357°
2026-05-05 16:24 59.71025 10.86783 1479 ft 101 kts 357°
2026-05-05 16:25 59.71744 10.86857 1369 ft 103 kts
2026-05-05 16:25 59.72729 10.88185 1070 ft 91 kts 105°
2026-05-05 16:25 59.72246 10.88558 815 ft 85 kts 193°
2026-05-05 16:26 59.71273 10.88341 495 ft 61 kts 191°
2026-05-05 16:26 59.70443 10.88106 441 ft 69 kts 187°
2026-05-05 16:27 59.69965 10.87973 649 ft 69 kts 187°
2026-05-05 16:27 59.69510 10.88213 818 ft 77 kts 139°
2026-05-05 16:27 59.69194 10.89010 1037 ft 76 kts 120°
2026-05-05 16:27 59.68950 10.89980 1220 ft 78 kts 114°
2026-05-05 16:28 59.68777 10.91024 1393 ft 82 kts 107°
2026-05-05 16:28 59.68709 10.92158 1580 ft 85 kts 86°
2026-05-05 16:28 59.68726 10.93293 1800 ft 82 kts 86°
2026-05-05 16:28 59.68758 10.94418 2011 ft 82 kts 80°
2026-05-05 16:29 59.68867 10.95240 1585 ft 104 kts 263°
2026-05-05 16:29 59.68331 10.95388 1262 ft 101 kts 126°
2026-05-05 16:29 59.68010 10.96558 1262 ft 94 kts 121°
2026-05-05 16:29 59.67725 10.97694 1281 ft 92 kts 119°
2026-05-05 16:30 59.67425 10.98833 1290 ft 90 kts 128°
2026-05-05 16:30 59.67037 10.99797 1293 ft 92 kts 134°
2026-05-05 16:30 59.66641 11.00836 1357 ft 98 kts 113°
2026-05-05 16:30 59.66936 11.01826 1409 ft 97 kts 343°
2026-05-05 16:31 59.67160 11.00874 1420 ft 90 kts 232°
2026-05-05 16:31 59.66591 11.00979 1427 ft 105 kts 123°
2026-05-05 16:31 59.66853 11.02202 1425 ft 110 kts
2026-05-05 16:31 59.67521 11.02536 1533 ft 106 kts 52°
2026-05-05 16:32 59.67293 11.03672 1458 ft 101 kts 180°
2026-05-05 16:32 59.67104 11.02708 1411 ft 107 kts 313°
2026-05-05 16:32 59.67723 11.03193 1400 ft 116 kts 63°
2026-05-05 16:32 59.68054 11.04560 1533 ft 108 kts 65°
2026-05-05 16:33 59.68367 11.05941 1612 ft 108 kts 66°
2026-05-05 16:33 59.68665 11.07319 1649 ft 110 kts 65°
2026-05-05 16:33 59.68967 11.08715 1689 ft 110 kts 65°
2026-05-05 16:33 59.69292 11.10072 1748 ft 109 kts 60°
2026-05-05 16:34 59.69591 11.11455 1792 ft 109 kts 69°
2026-05-05 16:34 59.69749 11.12908 1848 ft 109 kts 82°
2026-05-05 16:34 59.69663 11.14433 1867 ft 111 kts 109°
2026-05-05 16:34 59.69243 11.15691 1893 ft 110 kts 139°
2026-05-05 16:35 59.68596 11.16439 1924 ft 107 kts 167°
2026-05-05 16:35 59.67878 11.16489 1928 ft 103 kts 199°
2026-05-05 16:35 59.67303 11.15730 1932 ft 100 kts 234°
2026-05-05 16:35 59.67096 11.14451 1928 ft 98 kts 268°
2026-05-05 16:36 59.67301 11.13172 1907 ft 104 kts 302°
2026-05-05 16:36 59.67873 11.12300 1920 ft 105 kts 331°
2026-05-05 16:36 59.68599 11.12126 1946 ft 108 kts
2026-05-05 16:36 59.69287 11.12741 1936 ft 114 kts 36°
2026-05-05 16:37 59.69708 11.14095 1933 ft 116 kts 73°
2026-05-05 16:37 59.69784 11.15694 1903 ft 119 kts 69°
2026-05-05 16:37 59.70363 11.16702 1867 ft 114 kts
2026-05-05 16:37 59.71094 11.16434 1841 ft 106 kts 321°
2026-05-05 16:38 59.71580 11.15360 1827 ft 102 kts 300°
2026-05-05 16:38 59.71936 11.14136 1813 ft 102 kts 293°
2026-05-05 16:38 59.72275 11.12906 1819 ft 102 kts 298°
2026-05-05 16:38 59.72643 11.11696 1794 ft 103 kts 297°
2026-05-05 16:39 59.72992 11.10461 1807 ft 101 kts 294°
2026-05-05 16:39 59.73309 11.09236 1815 ft 101 kts 291°
2026-05-05 16:39 59.73619 11.07963 1808 ft 102 kts 291°
2026-05-05 16:39 59.73909 11.06676 1818 ft 101 kts 287°
2026-05-05 16:40 59.74105 11.05348 1814 ft 101 kts 280°
2026-05-05 16:40 59.74240 11.03971 1797 ft 102 kts 277°
2026-05-05 16:40 59.74351 11.02605 1793 ft 100 kts 278°
2026-05-05 16:40 59.74457 11.01251 1805 ft 99 kts 275°
2026-05-05 16:41 59.74524 10.99871 1786 ft 100 kts 273°
2026-05-05 16:41 59.74571 10.98492 1758 ft 102 kts 270°
2026-05-05 16:41 59.74564 10.97065 1734 ft 102 kts 263°
2026-05-05 16:41 59.74376 10.95714 1695 ft 103 kts 250°
2026-05-05 16:42 59.74105 10.94400 1609 ft 97 kts 252°
2026-05-05 16:42 59.73931 10.93163 1322 ft 91 kts 263°
2026-05-05 16:42 59.73856 10.91972 1137 ft 86 kts 252°
2026-05-05 16:42 59.73568 10.90971 1080 ft 82 kts 232°
2026-05-05 16:43 59.73192 10.90125 994 ft 81 kts 228°
2026-05-05 16:43 59.72759 10.89399 918 ft 82 kts 218°
2026-05-05 16:43 59.72265 10.88811 782 ft 80 kts 209°
2026-05-05 16:43 59.71793 10.88485 690 ft 67 kts 191°
2026-05-05 16:44 59.71373 10.88367 548 ft 56 kts 194°
2026-05-05 16:44 59.71001 10.88258 418 ft 52 kts 191°
2026-05-05 16:44 59.70705 10.88167 386 ft 23 kts 191°
2026-05-05 16:44 59.70684 10.88170 385 ft 9 kts 347°
2026-05-05 16:45 59.70769 10.88191 387 ft 15 kts 12°
2026-05-05 16:45 59.70880 10.88228 388 ft 14 kts 10°
2026-05-05 16:45 59.70926 10.88237 389 ft 5 kts 223°
2026-05-05 16:45 59.70921 10.88234 389 ft 0 kts 179°
2026-05-05 16:46 59.70716 10.88172 386 ft 57 kts 185°
2026-05-05 16:46 59.70280 10.88062 593 ft 59 kts 183°
2026-05-05 16:46 59.69878 10.88013 800 ft 60 kts 180°
2026-05-05 16:46 59.69584 10.87454 942 ft 70 kts 257°
2026-05-05 16:47 59.69539 10.86445 1090 ft 80 kts 259°
2026-05-05 16:47 59.69472 10.85304 1254 ft 86 kts 262°
2026-05-05 16:47 59.69432 10.84134 1485 ft 84 kts 262°
2026-05-05 16:47 59.69363 10.82969 1663 ft 87 kts 260°
2026-05-05 16:48 59.69300 10.81809 1868 ft 86 kts 261°
2026-05-05 16:48 59.69218 10.80597 1989 ft 92 kts 259°
2026-05-05 16:48 59.69121 10.79291 2008 ft 100 kts 260°
2026-05-05 16:48 59.69083 10.77894 2060 ft 101 kts 270°
2026-05-05 16:49 59.69157 10.76493 2057 ft 105 kts 274°
2026-05-05 16:49 59.69261 10.75049 2020 ft 107 kts 275°
2026-05-05 16:49 59.69376 10.73594 1970 ft 107 kts 276°
2026-05-05 16:49 59.69496 10.72128 1913 ft 107 kts 276°
2026-05-05 16:50 59.69617 10.70668 1869 ft 106 kts 276°
2026-05-05 16:50 59.69735 10.69250 1863 ft 104 kts 276°
2026-05-05 16:50 59.69850 10.67848 1862 ft 102 kts 276°
2026-05-05 16:50 59.69965 10.66464 1862 ft 102 kts 277°
2026-05-05 16:51 59.70079 10.65084 1860 ft 101 kts 278°
2026-05-05 16:51 59.70193 10.63700 1866 ft 102 kts 278°
2026-05-05 16:51 59.70311 10.62299 1859 ft 102 kts 278°
2026-05-05 16:51 59.70427 10.60916 1860 ft 102 kts 278°
2026-05-05 16:52 59.70541 10.59539 1873 ft 102 kts 277°
2026-05-05 16:52 59.70657 10.58155 1873 ft 101 kts 276°
2026-05-05 16:52 59.70771 10.56781 1877 ft 101 kts 277°
2026-05-05 16:52 59.70886 10.55391 1879 ft 102 kts 277°
2026-05-05 16:53 59.70998 10.54021 1879 ft 102 kts 277°
2026-05-05 16:53 59.71113 10.52631 1874 ft 101 kts 277°
2026-05-05 16:53 59.71225 10.51259 1870 ft 101 kts 278°
2026-05-05 16:53 59.71341 10.49870 1881 ft 101 kts 277°
2026-05-05 16:54 59.71455 10.48491 1875 ft 102 kts 277°
2026-05-05 16:54 59.71567 10.47124 1873 ft 101 kts 277°
2026-05-05 16:54 59.71680 10.45746 1866 ft 100 kts 277°
2026-05-05 16:54 59.71791 10.44381 1877 ft 101 kts 278°
2026-05-05 16:55 59.71903 10.42994 1864 ft 101 kts 279°
2026-05-05 16:55 59.72014 10.41626 1859 ft 100 kts 280°
2026-05-05 16:55 59.72125 10.40277 1881 ft 100 kts 279°
2026-05-05 16:55 59.72238 10.38899 1883 ft 102 kts 279°
2026-05-05 16:56 59.72355 10.37489 1887 ft 103 kts 278°
2026-05-05 16:56 59.72470 10.36098 1875 ft 103 kts 278°
2026-05-05 16:56 59.72584 10.34689 1879 ft 101 kts 278°
2026-05-05 16:56 59.72695 10.33300 1880 ft 102 kts 278°
2026-05-05 16:57 59.72807 10.31922 1885 ft 102 kts 278°
2026-05-05 16:57 59.72920 10.30528 1882 ft 101 kts 278°
2026-05-05 16:57 59.73030 10.29157 1876 ft 101 kts 278°
2026-05-05 16:57 59.73141 10.27768 1875 ft 101 kts 278°
2026-05-05 16:58 59.73253 10.26399 1876 ft 101 kts 278°
2026-05-05 16:58 59.73362 10.25028 1876 ft 101 kts 278°
2026-05-05 16:58 59.73477 10.23661 1871 ft 101 kts 282°
2026-05-05 16:58 59.73680 10.22305 1831 ft 104 kts 289°
2026-05-05 16:59 59.73916 10.20974 1812 ft 104 kts 286°
2026-05-05 16:59 59.74118 10.19562 1751 ft 107 kts 284°
2026-05-05 16:59 59.74279 10.18116 1712 ft 106 kts 281°
2026-05-05 16:59 59.74549 10.16719 1611 ft 109 kts 292°
2026-05-05 17:00 59.74847 10.15344 1532 ft 109 kts 292°
2026-05-05 17:00 59.75107 10.13922 1469 ft 108 kts 288°
2026-05-05 17:00 59.75312 10.12474 1398 ft 109 kts 286°
2026-05-05 17:00 59.75506 10.11038 1337 ft 108 kts 283°
2026-05-05 17:01 59.75561 10.09556 1185 ft 109 kts 266°
2026-05-05 17:01 59.75400 10.08080 1015 ft 109 kts 253°
2026-05-05 17:01 59.75160 10.06686 915 ft 103 kts 256°
2026-05-05 17:01 59.75001 10.05324 838 ft 99 kts 262°
2026-05-05 17:02 59.74912 10.03987 817 ft 97 kts 264°
2026-05-05 17:02 59.74896 10.02645 771 ft 98 kts 272°
2026-05-05 17:02 59.74916 10.01311 750 ft 96 kts 272°
2026-05-05 17:02 59.74960 9.99953 689 ft 99 kts 277°
2026-05-05 17:03 59.75055 9.98609 645 ft 99 kts 280°
2026-05-05 17:03 59.75202 9.97270 586 ft 98 kts 283°
2026-05-05 17:03 59.75338 9.96120 473 ft 79 kts 284°
2026-05-05 17:03 59.75467 9.95175 364 ft 63 kts 289°
2026-05-05 17:04 59.75637 9.94443 285 ft 52 kts 295°
2026-05-05 17:04 59.75777 9.93771 241 ft 54 kts 289°
2026-05-05 17:04 59.75874 9.93028 188 ft 56 kts 284°
2026-05-05 17:04 59.75958 9.92258 38 ft 55 kts 283°
2026-05-05 17:05 59.76029 9.91688 31 ft 32 kts 282°
2026-05-05 17:05 59.76051 9.91433 32 ft 4 kts 214°
2026-05-05 17:05 59.76022 9.91521 32 ft 13 kts 108°
2026-05-05 17:05 59.76001 9.91684 32 ft 7 kts 101°
2026-05-05 17:06 59.75988 9.91827 32 ft 15 kts 97°
2026-05-05 17:06 59.75970 9.92097 31 ft 26 kts 112°
2026-05-05 17:06 59.75924 9.92335 32 ft 8 kts 101°
2026-05-05 17:06 59.75920 9.92489 31 ft 9 kts 88°
2026-05-05 17:07 59.75939 9.92430 31 ft 25 kts 281°
2026-05-05 17:07 59.76025 9.91724 59 ft 70 kts 284°
2026-05-05 17:07 59.76077 9.90956 344 ft 57 kts 272°
2026-05-05 17:07 59.76015 9.90157 549 ft 62 kts 243°
2026-05-05 17:08 59.75695 9.89514 730 ft 68 kts 230°
2026-05-05 17:08 59.75384 9.88788 905 ft 72 kts 232°
2026-05-05 17:08 59.75116 9.88112 1183 ft 60 kts 239°
2026-05-05 17:08 59.74870 9.87338 1305 ft 73 kts 242°
2026-05-05 17:09 59.74604 9.86422 1421 ft 80 kts 244°
2026-05-05 17:09 59.74324 9.85415 1529 ft 84 kts 245°
2026-05-05 17:09 59.74035 9.84357 1566 ft 96 kts 245°
2026-05-05 17:09 59.73716 9.83172 1657 ft 97 kts 245°
2026-05-05 17:10 59.73399 9.81995 1744 ft 97 kts 245°
2026-05-05 17:10 59.73077 9.80823 1828 ft 97 kts 243°
2026-05-05 17:10 59.72646 9.79767 1861 ft 103 kts 231°
2026-05-05 17:10 59.72146 9.78689 1864 ft 108 kts 231°
2026-05-05 17:11 59.71628 9.77576 1866 ft 111 kts 231°
2026-05-05 17:11 59.71103 9.76450 1859 ft 112 kts 230°
2026-05-05 17:11 59.70582 9.75326 1853 ft 109 kts 232°
2026-05-05 17:11 59.70048 9.74265 1848 ft 108 kts 229°
2026-05-05 17:12 59.69516 9.73237 1851 ft 106 kts 228°
2026-05-05 17:12 59.68988 9.72219 1851 ft 106 kts 228°
2026-05-05 17:12 59.68464 9.71208 1852 ft 106 kts 228°
2026-05-05 17:12 59.67938 9.70194 1850 ft 106 kts 229°
2026-05-05 17:13 59.67405 9.69178 1851 ft 106 kts 229°
2026-05-05 17:13 59.66869 9.68170 1848 ft 106 kts 228°
2026-05-05 17:13 59.66336 9.67167 1871 ft 105 kts 228°
2026-05-05 17:13 59.65811 9.66175 1911 ft 105 kts 228°
2026-05-05 17:14 59.65285 9.65177 1947 ft 105 kts 228°
2026-05-05 17:14 59.64750 9.64165 1941 ft 106 kts 228°
2026-05-05 17:14 59.64223 9.63153 1934 ft 106 kts 228°
2026-05-05 17:14 59.63690 9.62139 1924 ft 106 kts 229°
2026-05-05 17:15 59.63144 9.61152 1938 ft 105 kts 223°
2026-05-05 17:15 59.62565 9.60250 1946 ft 106 kts 222°
2026-05-05 17:15 59.61983 9.59347 1939 ft 107 kts 223°
2026-05-05 17:15 59.61399 9.58439 1953 ft 105 kts 222°
2026-05-05 17:16 59.60839 9.57581 2032 ft 99 kts 222°
2026-05-05 17:16 59.60321 9.56757 2127 ft 94 kts 225°
2026-05-05 17:16 59.59849 9.55889 2250 ft 91 kts 230°
2026-05-05 17:16 59.59431 9.54953 2321 ft 93 kts 238°
2026-05-05 17:17 59.59053 9.53943 2411 ft 92 kts 241°
2026-05-05 17:17 59.58746 9.52817 2449 ft 94 kts 253°
2026-05-05 17:17 59.58543 9.51578 2510 ft 95 kts 258°
2026-05-05 17:17 59.58358 9.50337 2582 ft 94 kts 259°
2026-05-05 17:18 59.58206 9.49048 2620 ft 97 kts 264°
2026-05-05 17:18 59.58093 9.47725 2634 ft 99 kts 265°
2026-05-05 17:18 59.58011 9.46382 2664 ft 99 kts 268°
2026-05-05 17:18 59.57938 9.44999 2689 ft 101 kts 268°
2026-05-05 17:19 59.57850 9.43628 2722 ft 101 kts 265°
2026-05-05 17:19 59.57703 9.42290 2761 ft 99 kts 257°
2026-05-05 17:19 59.57487 9.40994 2766 ft 100 kts 257°
2026-05-05 17:19 59.57310 9.39663 2687 ft 104 kts 263°
2026-05-05 17:20 59.57144 9.38271 2523 ft 102 kts 257°
2026-05-05 17:20 59.56925 9.36980 2365 ft 98 kts 258°
2026-05-05 17:20 59.56751 9.35750 2170 ft 88 kts 264°
2026-05-05 17:20 59.56663 9.34579 1949 ft 86 kts 269°
2026-05-05 17:21 59.56608 9.33408 1805 ft 84 kts 268°
2026-05-05 17:21 59.56538 9.32252 1744 ft 84 kts 271°
2026-05-05 17:21 59.56601 9.31106 1705 ft 84 kts 287°
2026-05-05 17:22 59.56918 9.28863 1666 ft 84 kts 287°
2026-05-05 17:22 59.57066 9.27783 1752 ft 81 kts 282°
2026-05-05 17:22 59.57224 9.26733 1874 ft 81 kts 289°
2026-05-05 17:22 59.57395 9.25658 1965 ft 83 kts 287°
2026-05-05 17:23 59.57562 9.24550 1985 ft 85 kts 291°
2026-05-05 17:23 59.57818 9.23503 1941 ft 87 kts 300°
2026-05-05 17:23 59.58149 9.22475 1864 ft 88 kts 304°
2026-05-05 17:23 59.58496 9.21493 1793 ft 86 kts 306°
2026-05-05 17:24 59.58841 9.20510 1662 ft 87 kts 306°
2026-05-05 17:24 59.59184 9.19548 1543 ft 86 kts 298°
2026-05-05 17:24 59.59148 9.18357 1369 ft 95 kts 243°
2026-05-05 17:24 59.58571 9.17817 1232 ft 95 kts 181°
2026-05-05 17:25 59.57969 9.18096 1026 ft 82 kts 164°
2026-05-05 17:25 59.57636 9.18427 803 ft 83 kts 143°
2026-05-05 17:25 59.57174 9.19597 371 ft 78 kts 124°
2026-05-05 17:25 59.56872 9.20391 189 ft 67 kts 125°
2026-05-05 17:26 59.56605 9.21091 46 ft 60 kts 123°
2026-05-05 17:26 59.56405 9.21614 36 ft 34 kts 129°
2026-05-05 17:26 59.56366 9.21785 38 ft 9 kts 23°
2026-05-05 17:26 59.56407 9.21843 38 ft 7 kts 37°
2026-05-05 17:27 59.56422 9.21910 38 ft 7 kts 122°
2026-05-05 17:27 59.56384 9.21973 36 ft 1 kts 72°
2026-05-05 17:27 59.56384 9.21974 36 ft 0 kts 69°